User: anonymous   Login
Location: Brno
(49.2000°N, 16.6330°E)
Time: 12:09:50
(UTC+02:00)
Language:

Iridium 2 - Orbit

View from above orbital plane
View from above orbital plane
View from above satellite
View from above satellite

Ground track
Ground track

The orbit data is extracted from the following two-line orbital elements,

1 25527U 98066A   16210.49488108  .00001250  00000-0  64140-4 0  9999
2 25527  85.5292 223.1269 0009048 184.4395 175.6766 15.15425978968833
Epoch (UTC): 28 July 2016 11:52:37
Eccentricity: 0.0009048
inclination: 85.5292°
perigee height: 513 km
apogee height: 526 km
right ascension of ascending node: 223.1269°
argument of perigee: 184.4395°
revolutions per day: 15.15425978
mean anomaly at epoch: 175.6766°
orbit number at epoch: 96883

The dashed part of the orbit path shows where the satellite is in the earth's shadow,  

DLR